Temp
28 31 32 31 29 30 30 30 28 27 27 27 26 25 24 24 25 24 23 23 22 22 21 20 19 19 19 19 19 19 20 20 20 20 19 18 17 18 17 17 16 16 16 16
30 32 30 29 29 30 30 29 28 27 27 28 26 25 25 25 24 24 23 22 22 22 20 20 19 18 19 18 18 18 19 19 19 19 19 18 19 18 18 17 17 16 16 16
32 32 30 31 31 32 30 31 28 30 27 27 28 26 25 24 24 24 23 24 22 22 21 21 20 19 19 19 18 18 18 18 18 19 18 18 18 19 19 19 18 17 17 16
31 30 31 32 32 31 32 31 30 28 29 29 26 29 25 25 24 23 23 23 22 21 21 21 20 19 19 18 18 18 18 17 18 18 17 17 18 18 18 18 18 17 17 16
31 32 32 32 31 31 30 29 30 28 28 28 27 29 26 25 26 24 24 23 23 22 22 22 21 20 19 18 18 17 17 17 16 16 17 17 17 18 17 17 16 16 17 16
30 29 31 32 30 30 28 29 28 28 28 28 26 27 27 26 25 25 25 25 23 23 22 22 21 21 21 21 20 19 18 18 18 18 17 16 15 15 16 16 16 16 16 17
30 31 31 30 32 30 30 30 30 29 29 28 25 27 26 25 25 25 25 24 23 23 23 22 22 22 21 20 19 19 18 17 16 16 15 15 14 14 15 15 15 14 16 16
30 30 30 30 31 32 29 29 30 28 28 28 25 26 26 25 25 25 24 23 23 23 23 22 22 22 22 20 19 18 17 16 15 15 15 14 14 15 15 14 13 14 14 15
30 30 30 29 29 30 29 30 27 26 24 27 25 25 25 25 24 24 23 23 22 22 22 22 22 21 20 19 19 17 16 16 15 14 13 13 12 12 12 12 12 13 12 12
27 29 29 30 29 29 29 27 29 28 27 27 25 24 26 23 23 23 22 21 21 21 21 23 21 19 18 18 17 16 16 15 15 14 13 13 12 11 10 10 10 9 9 9
27 28 29 30 28 28 29 29 25 26 26 28 27 26 22 21 21 21 21 21 21 22 22 21 20 19 18 18 17 16 16 15 14 13 12 11 10 10 10 9 7 7 7 7
23 26 28 28 27 26 27 26 26 28 26 24 25 25 20 20 21 21 22 22 22 21 21 21 19 19 18 17 16 16 15 13 12 12 11 10 9 7 7 7 6 6 6 7
25 23 27 28 28 27 26 25 23 23 23 24 26 24 20 20 21 21 21 21 21 20 21 21 20 19 17 16 15 15 14 12 11 10 9 9 8 7 6 6 6 6 7 7
22 22 24 27 25 25 25 24 24 25 26 24 24 22 20 21 21 21 21 20 20 20 20 20 19 17 16 15 15 14 13 11 9 10 10 9 7 6 6 5 5 5 5 5
24 23 23 24 24 24 23 23 24 23 22 24 22 22 21 21 21 21 20 20 20 19 19 18 17 16 16 14 14 13 11 10 10 10 10 8 7 6 5 5 4 4 4 4
21 23 24 23 23 24 23 23 23 22 22 21 21 22 21 21 21 21 21 19 19 18 17 17 17 16 14 13 12 12 11 9 9 9 9 7 7 6 5 4 5 5 5 4
22 23 24 23 23 23 24 22 22 22 21 22 22 21 21 21 20 20 18 18 18 17 17 16 16 14 14 13 12 10 9 9 8 9 9 8 7 5 5 4 5 4 4 4
22 21 22 24 23 23 22 22 22 22 21 21 21 20 20 19 19 19 17 17 16 16 16 15 14 13 13 12 11 10 9 8 8 8 8 7 6 5 5 5 3 4 4 4
22 22 22 24 22 21 21 22 21 21 21 20 20 20 19 19 19 19 16 15 15 15 14 13 12 12 12 12 10 9 8 7 9 8 7 5 5 5 4 3 4 4 4 4
22 21 25 22 23 23 22 22 21 21 21 19 19 19 18 18 18 18 15 14 14 13 12 12 12 13 12 11 10 8 7 9 8 7 5 4 4 4 4 3 4 4 4 4
23 22 23 22 22 22 21 20 20 22 20 18 18 17 16 16 15 14 13 13 12 12 12 11 10 11 11 10 9 8 8 8 7 5 4 5 5 4 4 5 5 4 4 3
23 23 23 21 23 22 19 20 22 19 17 17 16 15 15 15 14 13 13 11 11 10 10 11 11 11 10 9 9 9 8 7 6 5 5 5 4 5 5 5 4 4 4 4
23 22 23 21 21 18 17 18 17 17 17 16 16 14 14 13 12 12 11 11 10 10 10 11 12 11 9 9 10 9 7 7 5 5 5 5 5 5 5 5 5 4 4 4
20 18 21 19 18 18 18 16 17 16 15 15 14 13 13 12 11 11 11 10 10 10 10 11 11 11 8 9 9 8 7 6 5 5 4 5 5 6 6 6 6 4 4 4
21 20 19 17 17 18 17 17 16 15 14 14 13 12 11 12 12 11 10 10 10 10 11 11 10 9 10 9 9 8 7 6 5 5 4 5 6 6 7 6 6 4 4 4
20 19 22 22 19 19 17 16 15 15 13 12 12 12 11 9 11 11 10 10 11 11 10 10 9 11 10 10 9 8 7 7 6 6 5 5 6 6 6 7 7 6 5 5
Height
775 777 781 778 781 782 786 790 801 804 799 805 814 817 821 817 814 816 816 818 821 823 820 815 814 810 809 806 803 801 799 799 798 796 794 791 788 785 783 780 775 770 765 762
780 783 775 776 781 783 787 793 805 804 801 802 814 823 820 818 821 819 821 824 824 826 825 820 817 818 813 812 811 807 804 803 800 798 795 792 789 785 781 777 773 768 763 758
778 776 772 773 781 783 790 790 800 796 805 805 809 822 824 821 819 821 820 822 827 828 826 823 819 818 816 813 812 809 807 804 802 798 795 793 789 785 780 774 768 763 760 758
776 771 774 776 781 780 790 781 787 797 801 813 813 821 824 824 824 824 824 824 827 829 826 824 821 819 819 817 816 814 810 806 802 800 797 793 789 783 778 772 765 759 757 753
782 776 776 782 783 777 789 784 788 798 803 808 815 815 821 819 820 822 822 824 825 825 824 821 819 820 818 816 815 812 809 806 803 800 796 794 789 785 777 771 764 758 753 750
777 770 772 774 778 777 782 790 799 803 806 821 826 823 820 819 821 818 815 817 821 821 819 819 820 817 816 816 814 812 807 804 802 799 796 793 790 785 778 771 764 759 752 747
781 780 773 772 777 779 784 793 812 821 820 825 826 822 820 818 814 813 813 814 815 816 816 818 816 815 817 816 813 811 808 806 804 801 798 794 790 784 779 772 764 756 750 745
794 805 784 776 779 784 793 795 808 835 829 822 823 829 821 814 813 811 813 817 818 818 819 819 818 817 816 815 814 812 811 809 805 802 798 794 789 783 775 769 763 756 751 745
796 801 780 781 778 781 794 800 804 822 833 824 831 825 817 814 816 817 818 819 820 820 820 819 818 819 818 817 815 814 811 809 806 802 798 793 788 781 774 767 761 755 749 744
794 803 789 783 780 784 788 799 808 809 832 835 832 833 823 826 824 823 823 825 825 825 824 822 822 821 821 820 819 816 814 810 807 801 797 792 787 780 773 766 760 754 747 740
789 794 797 786 798 803 797 802 815 817 824 826 831 828 834 833 833 832 830 829 829 826 825 825 825 824 823 820 818 814 812 810 807 804 800 794 788 781 774 768 762 756 748 741
801 802 808 807 801 800 799 812 814 815 829 834 828 833 840 838 835 833 831 830 828 829 828 827 827 825 822 820 818 817 815 813 810 806 802 796 790 783 777 771 765 759 753 746
798 819 817 813 807 802 812 817 822 825 824 831 828 836 841 840 838 836 835 833 833 833 830 828 826 825 823 821 820 818 815 813 810 807 802 797 792 786 780 776 770 764 757 752
799 821 820 817 822 819 824 825 822 820 819 831 834 842 844 842 840 838 837 837 835 834 832 830 828 827 826 824 821 817 816 811 810 806 802 797 793 789 785 780 775 768 762 758
801 822 822 823 822 824 831 830 826 830 837 832 842 842 842 840 839 838 839 837 836 835 833 832 830 829 826 824 821 819 818 814 811 807 802 799 796 792 789 783 779 773 769 765
812 827 822 832 827 825 834 834 833 837 838 841 841 841 840 840 839 837 837 839 838 836 835 834 833 831 829 826 824 821 819 817 813 809 806 802 798 795 792 788 785 781 776 772
815 820 824 837 833 832 836 843 840 841 840 840 840 843 841 841 842 840 842 841 839 838 836 836 834 833 831 828 826 824 822 818 815 812 809 806 802 799 795 793 790 786 782 778
818 824 828 833 833 847 844 839 838 841 843 842 843 844 844 844 844 842 845 843 841 840 839 838 837 835 832 831 827 825 823 819 817 814 812 808 805 803 800 797 794 791 788 785
811 819 832 832 842 847 845 841 842 842 847 846 847 846 845 844 842 838 847 848 846 845 842 841 839 836 833 830 827 825 824 822 820 817 815 812 809 807 805 801 799 797 794 791
813 816 817 835 840 847 842 838 838 836 846 849 849 849 849 845 843 841 851 850 848 846 843 841 839 836 832 830 828 827 826 825 824 822 819 816 813 812 810 807 805 802 799 796
822 826 831 838 839 844 841 840 838 844 855 851 852 853 853 852 855 855 854 851 849 845 843 843 840 837 834 831 828 828 830 829 829 827 823 820 818 816 815 813 810 807 803 800
825 827 833 839 839 848 844 841 840 851 853 853 855 857 856 855 856 856 855 853 850 847 845 842 840 837 835 830 831 833 833 834 833 830 827 825 823 822 821 818 815 811 807 804
827 829 828 839 842 848 849 848 851 851 853 856 856 858 859 858 858 858 857 854 852 849 846 843 841 838 836 835 835 835 837 837 835 833 832 830 829 827 825 822 819 815 812 808
830 833 833 842 849 847 849 853 853 854 857 859 860 861 861 861 861 859 857 855 851 849 847 844 841 840 839 839 839 839 839 839 838 837 836 835 833 831 829 826 824 821 817 813
826 830 838 847 848 848 850 852 855 858 860 861 862 863 864 863 861 860 858 855 852 851 848 846 843 842 842 842 841 841 841 841 841 840 839 838 837 835 833 831 829 826 823 819
826 829 826 828 835 839 847 853 857 858 861 863 863 864 865 865 863 860 858 856 854 852 851 848 845 844 844 844 844 843 843 843 843 843 842 842 840 838 836 834 832 830 827 824
Wind_Speed
2 2 2 1 2 3 5 10 15 9 4 11 13 13 9 9 11 13 13 14 14 14 17 20 18 18 19 21 23 23 25 24 20 15 9 5 4 7 13 16 18 19 25 24
1 4 1 2 6 10 13 17 8 6 8 9 13 11 9 7 7 10 8 9 9 9 11 16 17 15 16 15 15 17 19 19 19 16 11 7 10 11 15 16 15 15 17 18
3 3 1 3 5 7 9 6 9 5 8 10 8 8 5 6 8 5 3 8 8 7 9 10 14 15 15 16 15 16 16 18 17 18 16 15 13 16 17 23 24 20 19 17
2 2 3 3 1 3 6 4 11 14 8 4 2 4 3 5 8 6 4 7 5 4 7 8 10 12 10 11 10 13 14 16 16 17 14 14 16 19 21 23 24 25 19 16
2 3 5 3 3 1 2 5 11 11 7 4 3 3 5 1 7 5 4 6 7 7 8 10 13 12 12 11 11 12 14 16 16 15 20 17 18 20 23 23 24 25 23 17
2 2 1 0 3 5 10 9 11 3 2 3 3 3 4 1 1 2 2 4 6 8 9 11 12 16 18 17 16 15 20 23 23 21 21 19 18 21 25 27 25 23 24 22
2 3 2 1 4 7 4 3 2 3 3 2 1 4 3 1 3 5 5 5 7 7 9 10 13 17 16 17 19 17 17 18 19 19 19 19 19 19 20 23 26 28 25 24
2 5 6 7 2 2 5 2 1 1 2 2 1 2 3 4 5 3 3 4 5 8 9 9 14 16 18 19 17 16 15 15 16 17 19 18 20 20 22 23 25 26 25 24
3 3 0 7 3 2 4 2 2 4 1 3 0 1 2 5 6 6 5 6 9 10 9 12 17 19 20 19 19 18 17 18 19 18 17 18 20 23 25 26 26 25 28 26
2 4 3 2 2 13 3 5 0 1 2 3 3 3 3 8 6 4 6 7 8 8 8 11 16 18 17 17 14 12 12 13 15 18 20 22 23 25 25 24 26 27 26 23
2 1 2 2 6 4 3 2 5 2 2 3 4 1 5 7 5 5 7 6 6 8 10 11 15 16 16 15 12 9 11 15 19 20 20 22 25 25 23 22 23 22 20 20
2 2 3 4 2 1 7 4 2 3 1 1 2 2 4 4 6 6 6 7 9 10 10 11 13 14 17 14 10 13 17 17 17 17 18 19 19 20 19 21 22 22 23 23
2 3 4 5 4 3 5 5 2 2 1 2 4 3 3 2 2 4 6 8 9 9 10 11 15 17 16 11 13 15 14 16 17 17 15 17 18 18 20 18 19 23 26 26
5 3 3 3 4 2 5 9 4 2 2 2 3 2 3 1 2 3 5 7 7 9 11 12 13 15 11 11 10 11 15 17 16 17 17 16 16 17 17 17 20 23 26 25
3 4 6 10 11 13 11 12 13 8 3 4 4 1 1 2 5 5 6 8 10 12 12 11 10 11 14 15 16 16 17 16 16 18 19 19 14 15 17 21 22 23 25 25
3 5 6 6 8 13 16 10 7 7 5 6 2 1 2 4 6 9 11 9 11 10 9 8 12 15 17 17 17 15 15 15 14 16 18 16 12 15 18 18 20 20 22 23
2 6 3 4 3 1 4 7 7 2 2 3 5 5 6 7 10 12 10 11 11 7 6 9 13 15 15 17 15 11 10 9 13 15 16 14 12 15 18 19 19 20 21 21
5 4 2 3 5 2 4 3 2 3 2 3 3 6 8 9 10 8 11 11 9 8 10 12 15 15 14 16 13 9 8 11 14 16 16 14 11 12 16 18 19 19 19 21
4 4 4 2 3 3 2 1 2 4 3 5 5 7 9 11 9 3 13 11 10 12 13 10 10 12 15 14 11 7 9 13 14 15 16 14 13 15 17 18 18 17 17 17
7 7 2 2 2 2 3 1 6 2 2 5 6 8 10 11 11 10 13 16 16 17 13 9 15 17 15 15 8 8 10 12 14 15 13 12 13 13 16 17 17 17 16 16
3 3 5 3 3 3 2 7 5 3 4 4 5 7 9 9 6 11 15 15 18 17 14 14 15 13 14 13 5 9 9 12 12 12 14 14 13 12 13 15 16 15 16 15
2 1 2 2 2 3 6 3 2 3 3 4 6 7 9 9 11 12 13 15 18 18 15 14 13 13 16 10 10 10 11 9 11 14 17 17 16 15 16 16 16 17 16 16
1 2 2 3 3 3 4 7 4 3 5 5 6 8 9 10 11 12 12 14 15 14 13 12 12 11 13 10 9 10 8 9 12 15 18 18 17 16 15 15 16 19 20 17
2 1 3 4 3 6 5 6 6 8 8 5 7 7 8 9 11 11 10 12 13 13 13 13 12 12 10 9 9 9 9 9 13 14 13 14 15 16 14 15 16 17 19 17
2 6 6 3 4 5 3 5 7 8 6 6 8 8 8 8 9 10 10 11 12 13 13 12 13 10 8 8 8 7 7 7 11 12 12 12 14 14 14 13 16 15 18 20
3 5 2 2 9 3 6 8 7 7 6 6 7 7 9 7 7 10 11 12 12 12 13 14 13 10 9 7 6 5 4 5 8 9 10 10 10 10 11 10 12 16 17 19
Wind_Direction
16 176 118 314 104 84 107 118 114 118 138 69 94 99 83 80 78 69 57 54 51 46 65 70 67 69 65 63 63 61 58 54 57 58 48 21 315 287 289 301 305 281 275 277
168 89 281 114 132 106 126 123 112 99 95 106 121 102 86 82 88 85 89 87 80 73 63 64 71 68 73 70 66 68 63 52 46 41 28 6 342 330 322 327 326 319 314 303
130 79 176 148 141 133 161 169 174 150 118 94 128 117 123 73 103 113 174 91 78 73 77 78 74 68 65 60 52 57 53 52 40 31 17 5 357 348 340 334 328 328 325 322
65 346 105 76 123 174 171 126 161 145 170 157 282 159 128 111 126 97 99 120 104 109 95 83 78 70 61 57 54 50 47 43 37 31 17 5 350 339 331 328 325 324 319 316
58 58 39 57 7 160 86 74 149 136 101 152 61 272 111 189 154 101 143 134 121 95 67 59 51 50 47 39 25 30 32 30 19 15 11 1 346 333 326 327 328 322 320 313
35 332 59 149 82 79 137 92 93 107 138 169 33 295 138 176 338 281 306 104 86 71 52 45 41 41 36 28 23 19 21 20 19 13 7 360 347 336 330 327 327 327 322 316
39 50 351 357 138 119 179 160 166 171 205 47 345 227 29 287 313 287 324 33 41 35 34 31 30 28 21 21 25 21 17 15 13 9 1 352 344 335 330 326 322 321 321 319
113 153 5 353 41 88 47 2 32 268 270 95 154 234 76 342 338 284 77 79 50 36 31 25 25 16 13 16 13 12 16 14 9 3 356 351 345 337 328 321 319 314 316 314
133 90 252 39 60 325 137 79 54 103 45 233 34 195 207 27 30 64 67 52 34 29 24 14 13 10 5 357 352 6 6 5 2 359 352 346 341 336 330 327 326 319 320 318
116 127 20 55 186 56 43 123 224 66 283 297 186 256 272 345 356 33 40 49 50 29 12 11 5 0 350 345 353 2 7 3 355 355 354 350 347 343 340 341 338 336 337 337
95 335 93 270 32 23 100 93 67 84 331 302 302 138 352 325 2 66 72 52 22 8 8 7 357 348 345 349 355 6 4 359 357 356 356 354 350 354 356 354 358 2 5 15
42 83 80 95 59 9 61 51 37 299 211 74 318 94 6 61 62 54 42 15 6 359 356 354 352 352 356 354 5 6 4 4 1 359 358 0 2 2 11 11 20 25 29 34
149 39 131 148 154 86 48 22 58 104 285 112 302 74 109 91 73 27 5 4 356 356 2 354 358 357 356 15 15 10 4 4 2 1 2 12 12 16 25 18 23 32 37 38
93 69 31 163 70 56 59 16 9 354 360 109 34 128 166 209 294 343 359 356 360 2 2 2 355 358 15 9 360 356 7 17 10 5 3 22 34 27 25 25 29 29 36 31
67 84 90 80 88 87 80 55 49 67 30 18 97 77 202 261 294 316 335 356 2 358 359 358 8 15 6 357 357 5 10 16 11 13 16 18 33 40 39 35 29 26 27 27
20 125 122 66 102 95 75 53 54 53 55 88 82 45 11 312 307 324 345 355 355 352 353 14 12 7 360 354 353 4 10 17 17 20 21 16 41 43 37 29 26 25 26 28
70 145 151 131 188 299 69 26 43 48 40 2 4 18 350 345 342 340 348 354 344 340 353 0 1 355 352 357 354 13 19 26 18 21 18 19 36 42 41 32 29 32 31 35
117 99 50 100 141 199 76 40 35 10 76 43 22 0 348 343 340 359 17 352 350 357 357 357 350 343 345 357 359 17 39 38 30 27 24 26 35 49 36 31 34 36 38 40
65 125 101 142 80 110 194 207 333 328 64 30 353 349 345 346 324 7 15 9 355 346 344 344 343 351 356 358 3 46 54 42 34 25 26 26 32 54 43 37 35 35 37 36
68 72 99 129 130 101 103 126 332 209 150 22 2 354 355 340 336 350 354 345 343 340 341 350 358 357 354 358 21 68 52 45 35 29 26 32 46 57 46 42 43 41 40 35
46 37 71 99 102 111 21 320 308 295 29 32 18 22 12 360 336 332 345 352 349 345 354 0 360 358 358 352 86 84 57 50 41 39 40 42 48 54 49 50 44 39 34 39
43 78 75 120 109 122 9 302 341 78 94 47 49 28 4 349 349 358 355 356 359 358 352 0 1 4 5 29 102 84 65 57 54 53 53 55 59 62 59 54 41 35 31 25
123 16 85 4 74 93 42 81 88 93 81 54 36 21 0 2 5 359 5 6 357 356 354 355 5 15 25 60 79 84 75 70 64 63 64 65 65 60 54 45 35 27 28 21
105 146 86 173 145 130 112 92 92 84 90 70 43 27 25 16 14 14 11 11 8 19 6 6 13 17 30 73 81 84 88 81 72 71 66 64 60 55 49 46 39 32 26 21
57 159 130 98 143 140 125 120 119 100 83 57 52 47 41 30 30 17 20 20 23 21 13 13 7 11 74 85 84 80 86 81 84 79 74 65 54 45 42 40 33 27 31 34
192 150 173 101 153 107 134 138 132 101 72 54 50 57 49 44 16 21 24 31 30 21 9 14 23 76 90 89 80 70 73 80 94 87 72 55 42 36 38 38 43 32 41 51